Flag for Cambodia Weather past 2 weeks in Phnom Penh, Cambodia

Now
84 °F

Light rain. Partly cloudy.


Feels Like: 91 °F
Forecast: 76 / 90 °F
Wind: 5 mph from Southwest

Location: Phnom-Penh / Pochentong

Current Time: Jul 29, 2014 at 7:59:36 PM

Latest Report: Jul 29, 2014 at 7:00 PM


Visibility: N/A

Pressure: 29.68 "Hg

Humidity: 70%

Dew point: 73 °F

Location of Phnom PenhLocation

Historic Weather in Phnom Penh — Graph

°F

Phnom Penh temperature yesterday

Maximum temperature yesterday: 95 °F (at 1:00 PM)
Minimum temperature yesterday: 77 °F (at 8:30 PM)
Average temperature yesterday: 85 °F

Past Weeks' High & Low Weather Summary

 TemperatureHumidityPressure
High95 °F (Jul 15, 1:30 PM)100% (Jul 22, 6:30 AM)29.83 "Hg (Jul 22, 6:30 AM)
Low77 °F (Jul 20, 6:00 AM)36% (Jul 16, 1:00 PM)29.62 "Hg (Jul 16, 4:00 PM)
Average85 °F70%29.73 "Hg
* Reported Jul 14 6:00 PM — Jul 29 6:30 PM, Phnom Penh, Weather by CustomWeather, © 2014

Note: Actual official high and low records may vary slightly from our data, if they occured in-between our weather recording intervals... More about our weather records

Advertising

Phnom Penh weather history for previous 24 hours

 ConditionsComfort  
Time TempWeatherWind HumidityBarometerVisibility
6:30 PM
Jul 29
82 °FPartly cloudy.5 mph79%29.65 "Hg6 mi
2:00 PM90 °FScattered clouds.10 mph55%29.68 "HgN/A
1:30 PM91 °FScattered clouds.13 mph56%29.68 "HgN/A
1:00 PM91 °FScattered clouds.12 mph56%29.68 "HgN/A
12:30 PM91 °FScattered clouds.14 mph56%29.68 "HgN/A
12:00 PM91 °FScattered clouds.10 mph59%29.71 "HgN/A
11:30 AM90 °FScattered clouds.12 mph63%29.71 "HgN/A
11:00 AM90 °FScattered clouds.10 mph63%29.71 "HgN/A
10:30 AM90 °FScattered clouds.8 mph63%29.74 "HgN/A
10:00 AM90 °FScattered clouds.12 mph55%29.74 "HgN/A
9:30 AM88 °FScattered clouds.10 mph62%29.74 "HgN/A
9:00 AM86 °FScattered clouds.10 mph70%29.74 "HgN/A
8:30 AM84 °FPassing clouds.6 mph74%29.74 "HgN/A
8:00 AM82 °FPassing clouds.3 mph79%29.71 "HgN/A
7:30 AM82 °FScattered clouds.6 mph79%29.71 "HgN/A
7:00 AM81 °FScattered clouds.1 mph84%29.71 "HgN/A
6:30 AM79 °FScattered clouds.1 mph84%29.71 "HgN/A
6:00 AM79 °FScattered clouds.1 mph79%29.68 "HgN/A
12:30 AM79 °FPassing clouds.6 mph79%29.74 "Hg6 mi
12:00 AM79 °FPassing clouds.2 mph79%29.74 "Hg6 mi
11:30 PM
Jul 28
77 °FPassing clouds.2 mph79%29.74 "Hg6 mi
11:00 PM77 °FPassing clouds.5 mph79%29.74 "Hg6 mi
10:30 PM77 °FPassing clouds.6 mph83%29.77 "Hg6 mi
10:00 PM77 °FPassing clouds.7 mph89%29.77 "Hg6 mi
9:30 PM77 °FPassing clouds.5 mph89%29.77 "Hg6 mi
9:00 PM77 °FLight rain. Partly cloudy.6 mph89%29.77 "Hg5 mi
8:30 PM77 °FRain. Partly cloudy.8 mph89%29.77 "Hg3 mi
8:00 PM84 °FRain. Partly cloudy.20 mph70%29.74 "Hg3 mi
7:30 PM84 °FPartly cloudy.7 mph70%29.71 "Hg5 mi
7:00 PM82 °FPartly cloudy.No wind79%29.68 "Hg6 mi
Weather by CustomWeather, © 2014

See weather overviewHow to use our weather pages